Location: Chiroubles
(46.1812°N, 4.6660°E)
Time: 00:58:51
(UTC+00:00)

Cosmos 2360 Rocket - Pass Details

Date: 15 August 2020
Orbit: 834 x 845 km, 71.0° (Epoch: 25 September)

Event Time Altitude Azimuth Distance (km) Brightness Sun altitude
Rises 22:05:21 0° 328° (NNW) 3,413 6.7 -26.0°
Reaches altitude 10° 22:07:55 10° 321° (NW) 2,473 5.6 -26.2°
Maximum altitude 22:13:13 42° 253° (WSW) 1,187 2.9 -26.6°
Enters shadow 22:13:52 40° 235° (SW) 1,217 2.9 -26.7°
